Home > Weather > Visalia > Past weeks

Flag for U.S.A. Weather for the Past 2 Weeks in Visalia, California, U.S.A.

Now
51 °F

Fog.


Feels Like: 51 °F
Forecast: 41 / 64 °F
Wind: No wind

Location: Visalia Municipal

Current Time: Feb 7, 2016 at 10:50:16 AM

Latest Report: Feb 7, 2016 at 9:56 AM


Visibility: 2 mi

Pressure: 30.34 "Hg

Humidity: 86%

Dew point: 47 °F

Location of VisaliaLocation

Historic Weather in Visalia — Graph

°F

Visalia Temperature Yesterday

Maximum temperature yesterday: 61 °F (at 2:56 PM)
Minimum temperature yesterday: 37 °F (at 3:56 AM)
Average temperature yesterday: 47 °F

High & Low Weather Summary for the Past Weeks

 TemperatureHumidityPressure
High62 °F (Jan 29, 2:56 PM)100% (Jan 23, 8:54 AM)30.50 "Hg (Jan 23, 8:54 AM)
Low30 °F (Feb 3, 6:56 AM)49% (Feb 3, 2:56 PM)29.71 "Hg (Jan 31, 12:56 PM)
Average47 °F85%30.27 "Hg
* Reported Jan 23 8:54 AM — Feb 7 8:56 AM, Visalia, Weather by CustomWeather, © 2016

Note: Actual official high and low records may vary slightly from our data, if they occured in-between our weather recording intervals... More about our weather records

Advertising

Visalia Weather History for the Previous 24 Hours

 ConditionsComfort  
Time TempWeatherWind HumidityBarometerVisibility
8:56 AM
Sun, Feb 7
47 °FFog.5 mph93%30.34 "Hg2 mi
7:56 AM41 °FFog.3 mph96%30.34 "Hg1 mi
6:58 AM39 °FFog.3 mph100%30.31 "Hg1 mi
5:56 AM40 °FFog.5 mph100%30.33 "Hg1 mi
5:00 AM39 °FFog.5 mph100%30.31 "Hg1 mi
3:56 AM42 °FFog.3 mph96%30.34 "Hg2 mi
2:56 AM42 °FFog.3 mph96%30.35 "Hg3 mi
1:56 AM40 °FFog.5 mph100%30.36 "Hg2 mi
12:56 AM42 °FFog.3 mph96%30.37 "Hg3 mi
11:56 PM
Sat, Feb 6
44 °FFog.3 mph96%30.38 "Hg2 mi
10:56 PM47 °FFog.No wind93%30.37 "Hg3 mi
9:56 PM47 °FFog.5 mph93%30.37 "Hg3 mi
7:56 PM50 °FFog.No wind89%30.36 "Hg5 mi
6:56 PM51 °FFog.No wind86%30.35 "Hg6 mi
5:56 PM55 °FClear.3 mph77%30.34 "Hg8 mi
4:56 PM59 °FSunny.5 mph72%30.34 "Hg9 mi
3:56 PM61 °FSunny.5 mph65%30.35 "Hg9 mi
2:56 PM61 °FSunny.No wind65%30.36 "Hg9 mi
1:56 PM60 °FSunny.6 mph67%30.38 "Hg10 mi
12:56 PM58 °FSunny.No wind67%30.40 "Hg10 mi
11:56 AM54 °FSunny.No wind77%30.44 "Hg6 mi
10:56 AM50 °FFog.6 mph86%30.48 "Hg3 mi
Weather by CustomWeather, © 2016

See weather overviewHow to use our weather pages